Regional Weather Roundup
Issued by NWS State College, PA

Home | Current Version | Previous Version | Text Only | Print | Product List | Glossary Off
Versions: 1 2 3 4 5 6 7 8 9 10 11 12 13 14 15 16 17 18 19 20 21 22 23 24 25 26 27 28 29 30 31 32 33 34 35 36 37 38 39 40 41 42 43 44 45 46 47 48 49 50

000
ASUS41 KCTP 061903
RWRCTP

REGIONAL WEATHER ROUNDUP
NATIONAL WEATHER SERVICE STATE COLLEGE PA
300 PM EDT WED MAY 06 2015

Note: "fair" indicates few or no clouds below 12,000 feet with no
significant weather and/or obstructions to visibility.

* = STATION THAT DOES NOT REPORT PRECIPITATION /E.G. RAIN...SNOW...ETC/
    THUNDER OR FOG.

PAZ002>004-007>009-013>016-020>023-029>032-062000-
WESTERN PENNSYLVANIA

CITY           SKY/WX    TMP DP  RH WIND       PRES   REMARKS
ERIE           PTSUNNY   64  56  75 N7        30.21F
MEADVILLE      PTSUNNY   71  59  65 W7        30.21F
FRANKLIN*      CLOUDY    72  59  64 N7        30.21F
NEW CASTLE     FAIR      82  61  49 NW10      30.17F
BEAVER COUNTY  CLOUDY    79  57  47 NW9       30.18F
BUTLER*        MOSUNNY   79  57  47 W7        30.19F
PITTSBURGH INT PTSUNNY   82  56  40 NW14G21   30.17F
PITTSBURGH     MOSUNNY   82  49  31 W12G18    30.16F
INDIANA*       MOSUNNY   79  57  47 W9        30.20F
LATROBE        PTSUNNY   81  57  44 W12G21    30.18F
WASHINGTON CO* PTSUNNY   81  55  41 NW6       30.20F
$$

PAZ004>006-010>012-017>019-024>028-033>037-041-042-045-046-049>053-062000-
CENTRAL PENNSYLVANIA

CITY           SKY/WX    TMP DP  RH WIND       PRES   REMARKS
BRADFORD       LGT RAIN  56  54  93 SE7       30.25F
DUBOIS         CLOUDY    71  58  63 NE7       30.21F
CLEARFIELD     CLOUDY    62  57  83 NE9       30.24F
JOHNSTOWN      MOSUNNY   75  52  44 W7        30.20F
ALTOONA        TSTM      73  58  59 E7        30.19F
STATE COLLEGE  PTSUNNY   63  57  82 NE12      30.24F
WILLIAMSPORT   CLOUDY    60  54  80 E5        30.26F
SELINSGROVE    CLOUDY    60  55  83 NE6       30.27S
FT INDIANTOWN  PTSUNNY   66  52  60 NE6       30.24F
CAPITAL CITY   MOSUNNY   71  54  54 CALM      30.23F
HARRISBURG     PTSUNNY   73  55  53 E8        30.22F
YORK           CLOUDY    73  54  51 NE12      30.21F
$$

PAZ038>040-043-044-047-048-054-055-060>062-067>071-062000-
EASTERN PENNSYLVANIA

CITY           SKY/WX    TMP DP  RH WIND       PRES   REMARKS
SCRANTON       CLOUDY    62  48  60 CALM      30.28F
MOUNT POCONO   CLOUDY    58  46  64 SE5       30.28F
ALLENTOWN      LGT RAIN  64  50  60 N8        30.27S
QUAKERTOWN*    MOCLDY    66  45  45 E7        30.27S
READING        CLOUDY    68  49  50 N8        30.23F
LANCASTER      PTSUNNY   71  53  52 NE7       30.23S
COATESVILLE    PTCLDY    72  48  43 SE8       30.24F
POTTSTOWN      PTSUNNY   70  44  39 E6        30.25F
BLUE BELL      MOSUNNY   73  46  38 NE9       30.23F
DOYLESTOWN     PTSUNNY   68  41  37 N7        30.24F
WILLOW GROVE   NOT AVBL
NORTH PHILA    PTSUNNY   74  43  32 E9        30.25R
PHILADELPHIA   PTSUNNY   76  47  35 E10       30.22F
$$



USA.gov is the U.S. government's official web portal to all federal, state and local government web resources and services.